PBO Station Position Time Series. Reference Frame : NAM14
Format Version,1.1.0
4-character ID,P398
Station name,StaffordCrWA2006
Begin Date, 2006-08-25
End Date, 2019-10-07
Release Date, 2019-10-08
Reference position, 46.9257848647 North Latitude, -123.9161445969 East Longitude, 23.51111 meters elevation,
Date, North (mm), East (mm), Vertical (mm), North Std. Deviation (mm), East Std. Deviation (mm),              Vertical Std. Deviation (mm), Quality,
2006-08-25,0.00, 0.00, 0.00, 2.25, 1.62, 7.32, repro,
2006-08-26,-0.52, -0.89, -4.24, 2.28, 1.65, 7.44, repro,
2006-08-27,0.74, -2.13, -4.30, 2.30, 1.67, 7.53, repro,
2006-08-28,0.09, -2.06, -3.88, 2.29, 1.67, 7.51, repro,
2006-08-29,0.52, -0.63, -2.60, 2.29, 1.67, 7.49, repro,
2006-08-30,0.82, -2.04, -6.72, 2.29, 1.67, 7.51, repro,
2006-08-31,0.17, -1.40, -9.04, 2.29, 1.66, 7.47, repro,
2006-09-01,0.79, -1.76, -11.23, 2.29, 1.66, 7.46, repro,
2006-09-02,0.50, -2.36, -6.23, 2.32, 1.68, 7.63, repro,
2006-09-03,0.12, -1.81, -5.79, 2.29, 1.67, 7.49, repro,
2006-09-04,1.57, -1.64, -5.70, 2.37, 1.71, 7.70, repro,
2006-09-05,1.32, -1.50, -11.43, 2.37, 1.69, 7.62, repro,
2006-09-06,1.12, -1.64, -13.96, 2.31, 1.67, 7.51, repro,
2006-09-07,0.37, -1.97, -2.94, 2.34, 1.71, 7.75, repro,
2006-09-08,-1.14, -1.43, -0.84, 2.36, 1.72, 7.90, repro,
2006-09-09,-0.03, -1.31, 1.85, 2.26, 1.64, 7.38, repro,
2006-09-10,0.46, -1.01, -6.04, 2.26, 1.62, 7.29, repro,
2006-09-11,-0.15, -1.67, 0.13, 2.25, 1.62, 7.28, repro,
2006-09-12,-0.66, -2.52, -8.09, 2.24, 1.61, 7.23, repro,
2006-09-13,-0.34, -1.46, -3.91, 2.27, 1.63, 7.37, repro,
2006-09-14,0.10, -2.74, 2.35, 2.36, 1.71, 7.61, repro,
2006-09-15,0.87, -2.60, -4.45, 2.28, 1.62, 7.26, repro,
2006-09-16,-0.08, -1.92, -5.57, 2.21, 1.59, 7.14, repro,
2006-09-17,0.98, -1.67, -4.98, 2.20, 1.57, 7.09, repro,
2006-09-18,-0.64, -2.35, 7.59, 2.24, 1.60, 7.23, repro,
2006-09-19,-1.42, -1.72, -2.07, 2.24, 1.58, 7.21, repro,
2006-09-20,-0.53, -1.05, -3.10, 2.23, 1.59, 7.18, repro,
2006-09-21,-2.44, -2.40, 3.70, 2.24, 1.63, 7.28, repro,
2006-09-22,-1.45, -2.04, -9.32, 2.30, 1.66, 7.43, repro,
2006-09-23,-0.89, -1.44, -4.71, 2.26, 1.61, 7.24, repro,
2006-09-24,0.33, -2.15, -6.78, 2.29, 1.63, 7.34, repro,
2006-09-25,0.19, -1.54, -4.40, 2.25, 1.60, 7.23, repro,
2006-09-26,0.15, -2.28, -12.01, 2.23, 1.58, 7.13, repro,
2006-09-27,1.47, -1.69, -7.56, 2.22, 1.60, 7.19, repro,
2006-09-28,-0.30, -2.31, -7.31, 2.22, 1.60, 7.14, repro,
2006-09-29,-0.21, -2.09, -0.38, 2.22, 1.60, 7.20, repro,
2006-09-30,-1.37, -2.24, -5.32, 2.27, 1.64, 7.44, repro,
2006-10-01,0.52, -1.96, -5.39, 2.28, 1.63, 7.41, repro,
2006-10-02,-0.17, -1.26, -8.75, 2.30, 1.66, 7.39, repro,
2006-10-03,0.13, -1.45, -9.29, 2.34, 1.69, 7.59, repro,
2006-10-04,-0.02, -1.04, -3.71, 2.24, 1.60, 7.21, repro,
2006-10-05,-0.37, -1.75, -2.37, 2.25, 1.60, 7.23, repro,
2006-10-06,0.01, -1.99, -5.79, 2.26, 1.59, 7.23, repro,
2006-10-07,-0.05, -1.16, -17.67, 2.33, 1.67, 7.51, repro,
2006-10-08,0.29, -1.37, -12.68, 2.27, 1.64, 7.36, repro,
2006-10-09,-0.15, -1.31, -17.65, 2.29, 1.65, 7.36, repro,
2006-10-10,0.15, -1.64, -12.46, 2.29, 1.63, 7.49, repro,
2006-10-11,-0.47, -0.56, -7.80, 2.28, 1.63, 7.43, repro,
2006-10-12,0.10, -1.28, -4.35, 2.24, 1.58, 7.12, repro,
2006-10-13,0.23, -1.39, -3.04, 2.19, 1.58, 7.11, repro,
2006-10-14,1.14, -1.16, -2.39, 2.25, 1.62, 7.28, repro,
2006-10-15,0.69, -3.21, -1.19, 2.26, 1.64, 7.39, repro,
2006-10-16,-0.20, -1.91, 3.78, 2.23, 1.60, 7.30, repro,
2006-10-17,0.60, -0.96, 1.98, 2.35, 1.66, 7.70, repro,
2006-10-18,-0.27, -0.25, -0.95, 2.17, 1.56, 7.04, repro,
2006-10-19,-1.37, -0.19, -7.04, 2.48, 1.74, 7.93, repro,
2006-10-20,0.33, -1.15, -6.89, 2.70, 1.92, 8.96, repro,
2006-10-21,0.08, -0.98, -15.17, 2.35, 1.66, 7.61, repro,
2006-10-22,0.62, -1.23, -7.87, 2.27, 1.64, 7.50, repro,
2006-10-23,1.03, -1.47, -4.90, 2.23, 1.61, 7.25, repro,
2006-10-24,-0.67, -0.61, -2.16, 2.40, 1.66, 7.70, repro,
2006-10-25,0.42, -1.49, -3.72, 2.44, 1.68, 7.80, repro,
2006-10-26,-0.02, -1.65, -4.18, 2.27, 1.64, 7.48, repro,
2006-10-27,0.81, -0.70, -11.87, 2.20, 1.61, 7.19, repro,
2006-10-28,-0.77, 0.45, -7.38, 2.44, 1.75, 7.92, repro,
2006-10-29,-0.47, -0.76, -5.10, 2.22, 1.59, 7.26, repro,
2006-10-30,-0.91, -1.25, -9.79, 2.17, 1.56, 7.04, repro,
2006-10-31,0.70, -1.09, -6.46, 2.23, 1.59, 7.31, repro,
2006-11-01,-0.21, -2.16, -0.22, 2.27, 1.61, 7.45, repro,
2006-11-02,1.69, -2.96, 1.11, 2.20, 1.59, 7.25, repro,
2006-11-03,0.89, 0.23, -4.74, 2.25, 1.64, 7.45, repro,
2006-11-04,1.12, 0.07, -15.66, 2.30, 1.64, 7.40, repro,
2006-11-05,0.48, -0.66, -6.03, 2.35, 1.66, 7.54, repro,
2006-11-06,1.95, -0.14, -16.81, 2.17, 1.57, 7.11, repro,
2006-11-07,0.23, -0.49, -7.80, 2.35, 1.71, 7.58, repro,
2006-11-08,0.04, -0.51, -9.60, 2.30, 1.64, 7.36, repro,
2006-11-09,0.64, 0.19, -5.93, 2.37, 1.70, 7.58, repro,
2006-11-10,-0.15, -0.65, -9.28, 2.26, 1.59, 7.18, repro,
2006-11-11,1.67, 0.48, -16.58, 2.44, 1.77, 7.92, repro,
2006-11-12,-0.22, -0.19, -11.68, 2.41, 1.73, 7.65, repro,
2006-11-13,0.76, -1.92, 2.15, 2.34, 1.66, 7.42, repro,
2006-11-14,0.70, -1.09, -10.85, 2.19, 1.56, 7.06, repro,
2006-11-15,1.05, -0.24, -13.51, 2.17, 1.57, 7.07, repro,
2006-11-16,0.01, -1.64, -5.55, 2.17, 1.57, 7.08, repro,
2006-11-17,-0.07, -0.79, -14.94, 2.16, 1.57, 7.07, repro,
2006-11-18,0.76, -0.61, -14.74, 2.17, 1.58, 7.14, repro,
2006-11-19,0.55, -1.34, -17.70, 2.16, 1.59, 7.15, repro,
2006-11-20,0.65, 0.08, -16.43, 2.16, 1.57, 7.05, repro,
2006-11-21,1.62, -1.30, -10.59, 2.18, 1.57, 7.09, repro,
2006-11-22,0.37, -1.00, -11.72, 2.17, 1.58, 7.12, repro,
2006-11-23,0.99, -0.18, -15.51, 2.19, 1.63, 7.24, repro,
2006-11-24,1.21, 0.38, -16.81, 2.19, 1.63, 7.28, repro,
2006-11-25,1.36, -0.71, -17.97, 2.18, 1.58, 7.11, repro,
2006-11-26,2.27, -1.07, -16.60, 2.22, 1.58, 7.10, repro,
2006-11-27,0.01, -0.17, -13.99, 2.20, 1.58, 7.06, repro,
2006-11-28,-2.09, 0.11, -13.46, 2.17, 1.58, 7.11, repro,
2006-11-29,-0.60, 0.94, -14.58, 2.15, 1.57, 7.05, repro,
2006-11-30,1.47, 0.49, -20.04, 2.18, 1.58, 7.11, repro,
2006-12-01,1.19, 0.62, -27.55, 2.18, 1.57, 7.10, repro,
2006-12-02,0.05, 0.68, -26.23, 2.15, 1.56, 6.99, repro,
2006-12-03,0.74, 0.61, -20.87, 2.21, 1.59, 7.14, repro,
2006-12-04,1.31, 0.63, -22.49, 2.21, 1.60, 7.18, repro,
2006-12-05,0.81, -0.07, -21.13, 2.18, 1.63, 7.22, repro,
2006-12-06,0.88, 0.50, -21.31, 2.28, 1.68, 7.45, repro,
2006-12-07,-0.68, 0.07, -15.77, 2.21, 1.63, 7.27, repro,
2006-12-08,1.11, -0.74, -12.63, 2.19, 1.63, 7.24, repro,
2006-12-09,1.73, -0.83, -8.28, 2.24, 1.65, 7.34, repro,
2006-12-10,1.24, -1.22, -16.22, 2.23, 1.65, 7.34, repro,
2006-12-11,-0.20, -0.88, -17.32, 2.18, 1.58, 7.09, repro,
2006-12-12,1.35, -0.50, -24.86, 2.24, 1.64, 7.31, repro,
2006-12-13,1.50, -1.09, -18.70, 2.14, 1.58, 7.04, repro,
2006-12-14,0.28, -1.45, -16.43, 2.22, 1.63, 7.22, repro,
2006-12-15,0.54, -0.06, -14.93, 2.24, 1.68, 7.49, repro,
2006-12-16,1.35, -1.34, -19.23, 2.24, 1.66, 7.29, repro,
2006-12-17,0.22, -0.79, -19.02, 2.26, 1.73, 7.66, repro,
2006-12-18,0.00, 0.83, -10.27, 2.53, 1.90, 8.55, repro,
2006-12-19,0.42, -0.60, -17.44, 2.25, 1.74, 7.69, repro,
2006-12-20,1.13, -1.20, -23.35, 2.28, 1.74, 7.59, repro,
2006-12-21,0.37, -0.47, -26.83, 2.17, 1.69, 7.40, repro,
2006-12-22,1.47, -0.55, -24.03, 2.37, 1.86, 8.22, repro,
2006-12-23,0.34, -0.67, -20.24, 2.21, 1.67, 7.40, repro,
2006-12-24,-0.59, 0.76, -20.53, 2.16, 1.59, 7.05, repro,
2006-12-25,0.96, -0.53, -21.10, 2.22, 1.70, 7.49, repro,
2006-12-26,1.14, -1.96, -20.66, 2.29, 1.73, 7.54, repro,
2006-12-27,1.60, -1.72, -12.06, 2.23, 1.69, 7.42, repro,
2006-12-28,0.52, 0.81, -18.53, 2.44, 1.90, 8.28, repro,
2006-12-29,-0.06, -0.68, -30.59, 2.22, 1.69, 7.38, repro,
2006-12-30,-0.09, -0.21, -27.22, 2.23, 1.69, 7.45, repro,
2006-12-31,1.47, -0.81, -29.43, 2.36, 1.79, 7.84, repro,
2007-01-01,0.58, -0.77, -17.89, 2.29, 1.75, 7.65, repro,
2007-01-02,-1.00, 0.55, -17.87, 2.36, 1.88, 8.18, repro,
2007-01-03,0.09, -1.91, -16.20, 2.19, 1.71, 7.42, repro,
2007-01-04,0.11, -2.20, -19.61, 2.16, 1.63, 7.22, repro,
2007-01-05,0.12, -1.30, -22.27, 2.18, 1.67, 7.32, repro,
2007-01-06,0.63, -1.14, -19.12, 2.20, 1.67, 7.31, repro,
2007-01-07,1.38, 0.24, -24.85, 2.20, 1.62, 7.14, repro,
2007-01-08,0.01, 0.44, -24.30, 2.22, 1.65, 7.26, repro,
2007-01-09,-0.32, 1.27, -24.64, 2.18, 1.61, 7.17, repro,
2007-01-10,1.04, 1.41, -16.46, 2.22, 1.60, 7.16, repro,
2007-01-11,0.48, -0.24, -24.15, 2.28, 1.61, 7.24, repro,
2007-01-12,2.15, -0.38, -25.94, 2.18, 1.57, 7.03, repro,
2007-01-13,1.67, 0.25, -27.50, 2.11, 1.55, 6.86, repro,
2007-01-14,1.65, 0.12, -28.37, 2.11, 1.54, 6.84, repro,
2007-01-15,1.73, 0.23, -27.32, 2.13, 1.56, 6.99, repro,
2007-01-16,2.16, -0.99, -24.07, 2.18, 1.56, 6.99, repro,
2007-01-17,2.13, -1.18, -25.02, 2.17, 1.59, 7.04, repro,
2007-01-18,0.61, 0.04, -29.82, 2.19, 1.62, 7.14, repro,
2007-01-19,0.02, -0.25, -24.11, 2.16, 1.56, 7.05, repro,
2007-01-20,1.20, -0.84, -18.67, 2.16, 1.57, 7.05, repro,
2007-01-21,0.81, -0.19, -22.97, 2.12, 1.55, 6.86, repro,
2007-01-22,0.20, -1.23, -19.25, 2.13, 1.54, 6.88, repro,
2007-01-23,-0.63, -1.00, -19.79, 2.11, 1.54, 6.82, repro,
2007-01-24,-0.71, -0.30, -24.34, 2.12, 1.54, 6.85, repro,
2007-01-25,-0.57, -1.14, -28.96, 2.19, 1.59, 6.99, repro,
2007-01-26,0.42, -1.53, -25.27, 2.13, 1.54, 6.84, repro,
2007-01-27,-0.52, -1.79, -24.57, 2.13, 1.54, 6.83, repro,
2007-01-28,-0.15, -1.65, -22.89, 2.13, 1.54, 6.87, repro,
2007-01-29,0.86, -1.13, -26.38, 2.13, 1.55, 6.86, repro,
2007-01-30,-0.18, -2.89, -20.28, 2.12, 1.53, 6.79, repro,
2007-01-31,-0.91, -2.25, -18.32, 2.12, 1.54, 6.81, repro,
2007-02-01,-0.13, -1.49, -14.55, 2.15, 1.58, 6.96, repro,
2007-02-02,0.62, -2.08, -19.04, 2.16, 1.56, 6.94, repro,
2007-02-03,-0.50, -1.82, -16.36, 2.17, 1.57, 7.01, repro,
2007-02-04,0.17, -3.02, -17.53, 2.14, 1.55, 6.87, repro,
2007-02-05,-1.09, -1.92, -21.90, 2.11, 1.54, 6.78, repro,
2007-02-06,2.18, -2.95, -21.32, 2.16, 1.58, 6.92, repro,
2007-02-07,1.01, -3.07, -20.74, 2.11, 1.54, 6.80, repro,
2007-02-08,1.23, -2.27, -20.23, 2.15, 1.59, 6.96, repro,
2007-02-09,0.99, -1.67, -19.39, 2.17, 1.61, 7.10, repro,
2007-02-10,2.14, -3.83, -13.26, 2.11, 1.54, 6.79, repro,
2007-02-11,1.84, -3.55, -14.40, 2.11, 1.55, 6.85, repro,
2007-02-12,2.24, -2.29, -22.37, 2.11, 1.54, 6.79, repro,
2007-02-13,1.02, -1.98, -20.86, 2.11, 1.54, 6.79, repro,
2007-02-14,1.04, -1.22, -20.05, 2.14, 1.56, 6.93, repro,
2007-02-15,1.32, -2.26, -18.07, 2.12, 1.55, 6.83, repro,
2007-02-16,1.12, -2.39, -17.99, 2.11, 1.55, 6.81, repro,
2007-02-17,0.24, -1.60, -25.66, 2.17, 1.59, 7.01, repro,
2007-02-18,0.28, -2.61, -8.66, 2.11, 1.54, 6.82, repro,
2007-02-19,0.31, -2.66, -10.13, 2.14, 1.55, 6.91, repro,
2007-02-20,0.96, -2.17, -9.68, 2.13, 1.55, 6.91, repro,
2007-02-21,-0.46, -2.41, -9.11, 2.16, 1.59, 6.98, repro,
2007-02-22,0.84, -2.23, -18.47, 2.12, 1.56, 6.88, repro,
2007-02-23,-0.65, -3.42, -16.04, 2.23, 1.63, 7.19, repro,
2007-02-24,0.36, -3.71, -13.29, 2.14, 1.54, 6.88, repro,
2007-02-25,1.73, -3.34, -14.60, 2.14, 1.55, 6.87, repro,
2007-02-26,0.39, -2.59, -10.88, 2.13, 1.55, 6.85, repro,
2007-02-27,1.19, -3.14, -13.55, 2.13, 1.55, 6.88, repro,
2007-02-28,-0.88, -2.68, -15.04, 2.14, 1.55, 6.89, repro,
2007-03-01,-0.93, -2.12, -18.11, 2.19, 1.61, 7.07, repro,
2007-03-02,0.61, -1.30, -17.97, 2.22, 1.61, 7.13, repro,
2007-03-03,0.24, -1.74, -21.88, 2.18, 1.58, 6.97, repro,
2007-03-04,-0.11, -1.65, -21.05, 2.17, 1.59, 6.98, repro,
2007-03-05,-0.49, -2.18, -15.98, 2.18, 1.59, 7.03, repro,
2007-03-06,0.14, -2.58, -19.03, 2.17, 1.59, 7.03, repro,
2007-03-07,-1.95, -1.25, -9.72, 2.20, 1.59, 7.04, repro,
2007-03-08,-0.05, -1.83, -15.68, 2.20, 1.58, 6.99, repro,
2007-03-09,-0.22, -2.00, -17.40, 2.18, 1.58, 6.97, repro,
2007-03-10,0.61, -1.27, -14.98, 2.25, 1.62, 7.20, repro,
2007-03-11,-0.45, -3.08, -18.42, 2.18, 1.59, 6.97, repro,
2007-03-12,-0.61, -2.34, -16.42, 2.20, 1.59, 7.03, repro,
2007-03-13,0.04, -2.39, -18.90, 2.15, 1.55, 6.89, repro,
2007-03-14,0.73, -1.42, -18.35, 2.18, 1.57, 6.92, repro,
2007-03-15,1.27, -2.47, -20.01, 2.16, 1.57, 6.94, repro,
2007-03-16,0.15, -2.09, -18.09, 2.18, 1.57, 6.98, repro,
2007-03-17,-0.06, -2.59, -16.06, 2.16, 1.55, 6.90, repro,
2007-03-18,-0.89, -2.13, -16.13, 2.16, 1.55, 6.89, repro,
2007-03-19,-0.49, -1.58, -14.54, 2.14, 1.53, 6.78, repro,
2007-03-20,-0.12, -1.99, -9.83, 2.23, 1.58, 6.92, repro,
2007-03-21,-0.61, -1.86, -11.62, 2.21, 1.57, 6.88, repro,
2007-03-22,-1.45, -1.98, -12.62, 2.16, 1.55, 6.89, repro,
2007-03-23,0.16, -1.73, -18.75, 2.16, 1.55, 6.87, repro,
2007-03-24,-0.83, -1.52, -17.37, 2.15, 1.54, 6.82, repro,
2007-03-25,-0.55, -1.96, -10.39, 2.14, 1.54, 6.82, repro,
2007-03-26,0.05, -2.58, -20.63, 2.14, 1.55, 6.83, repro,
2007-03-27,-0.08, -2.35, -15.64, 2.18, 1.56, 6.97, repro,
2007-03-28,-0.04, -1.54, -21.32, 2.20, 1.57, 7.00, repro,
2007-03-29,-0.15, -0.24, -22.09, 2.17, 1.55, 6.91, repro,
2007-03-30,0.03, -2.33, -22.07, 2.14, 1.54, 6.81, repro,
2007-03-31,1.18, -1.48, -17.33, 2.12, 1.54, 6.79, repro,
2007-04-01,0.25, -2.55, -15.34, 2.15, 1.55, 6.87, repro,
2007-04-02,-0.38, -1.31, -18.50, 2.15, 1.54, 6.82, repro,
2007-04-03,0.91, -2.23, -23.74, 2.19, 1.58, 6.98, repro,
2007-04-04,0.57, -2.18, -22.70, 2.20, 1.58, 6.98, repro,
2007-04-05,0.23, -2.55, -20.79, 2.21, 1.61, 7.05, repro,
2007-04-06,2.13, -2.65, -18.23, 2.21, 1.62, 7.08, repro,
2007-04-07,-0.32, -3.06, -10.95, 2.21, 1.58, 7.01, repro,
2007-04-08,0.49, -1.51, -14.13, 2.16, 1.54, 6.84, repro,
2007-04-09,0.63, -2.98, -14.90, 2.15, 1.53, 6.80, repro,
2007-04-10,1.04, -2.62, -14.10, 2.20, 1.57, 7.01, repro,
2007-04-11,0.59, -2.43, -12.26, 2.14, 1.54, 6.79, repro,
2007-04-12,-0.63, -2.74, -9.62, 2.16, 1.54, 6.85, repro,
2007-04-13,0.15, -2.20, -14.29, 2.17, 1.54, 6.88, repro,
2007-04-14,0.59, -2.00, -13.06, 2.15, 1.54, 6.82, repro,
2007-04-15,0.16, -1.80, -16.28, 2.15, 1.53, 6.83, repro,
2007-04-16,0.67, -1.81, -16.32, 2.14, 1.53, 6.78, repro,
2007-04-17,1.87, -3.47, -20.44, 2.16, 1.54, 6.84, repro,
2007-04-18,1.52, -2.66, -19.55, 2.18, 1.54, 6.90, repro,
2007-04-19,1.74, -3.44, -20.04, 2.16, 1.53, 6.82, repro,
2007-04-20,0.39, -3.16, -15.00, 2.18, 1.53, 6.85, repro,
2007-04-21,1.21, -3.71, -15.86, 2.15, 1.53, 6.83, repro,
2007-04-22,0.28, -3.33, -12.62, 2.15, 1.53, 6.80, repro,
2007-04-23,0.36, -3.21, -17.20, 2.21, 1.56, 6.97, repro,
2007-04-24,1.58, -2.76, -15.48, 2.22, 1.56, 7.02, repro,
2007-04-25,1.47, -2.32, -18.99, 2.20, 1.55, 6.94, repro,
2007-04-26,0.10, -2.42, -14.64, 2.15, 1.52, 6.78, repro,
2007-04-27,0.90, -1.90, -15.87, 2.16, 1.53, 6.87, repro,
2007-04-28,0.38, -2.45, -19.98, 2.16, 1.54, 6.87, repro,
2007-04-29,0.83, -2.42, -17.26, 2.17, 1.54, 6.88, repro,
2007-04-30,0.87, -3.04, -14.53, 2.19, 1.54, 6.97, repro,
2007-05-01,0.71, -3.18, -17.00, 2.15, 1.53, 6.83, repro,
2007-05-02,-0.52, -2.78, -17.42, 2.24, 1.55, 7.06, repro,
2007-05-03,2.07, -2.90, -17.60, 2.23, 1.56, 7.08, repro,
2007-05-04,0.70, -2.70, -16.60, 2.21, 1.57, 7.07, repro,
2007-05-05,-0.12, -2.35, -17.39, 2.21, 1.57, 7.06, repro,
2007-05-06,-0.97, -2.61, -18.66, 2.18, 1.52, 6.87, repro,
2007-05-07,0.11, -2.66, -18.83, 2.18, 1.53, 6.90, repro,
2007-05-08,0.31, -2.27, -15.86, 2.18, 1.53, 6.89, repro,
2007-05-09,1.03, -2.81, -16.51, 2.18, 1.53, 6.88, repro,
2007-05-10,0.08, -3.04, -21.70, 2.27, 1.60, 7.28, repro,
2007-05-11,0.73, -2.38, -19.02, 2.27, 1.59, 7.30, repro,
2007-05-12,0.64, -2.87, -16.47, 2.20, 1.52, 6.90, repro,
2007-05-13,0.41, -2.37, -16.67, 2.23, 1.58, 7.07, repro,
2007-05-14,1.20, -2.35, -20.97, 2.21, 1.55, 6.97, repro,
2007-05-15,0.49, -3.63, -19.23, 2.18, 1.53, 6.90, repro,
2007-05-16,0.41, -3.86, -17.81, 2.19, 1.53, 6.91, repro,
2007-05-17,0.13, -3.28, -18.45, 2.23, 1.56, 7.10, repro,
2007-05-18,-0.95, -3.08, -13.06, 2.28, 1.61, 7.28, repro,
2007-05-19,0.23, -2.74, -14.29, 2.22, 1.58, 7.03, repro,
2007-05-20,0.02, -2.92, -16.65, 2.23, 1.58, 7.06, repro,
2007-05-21,0.00, -2.42, -13.49, 2.18, 1.53, 6.88, repro,
2007-05-22,0.08, -2.13, -16.28, 2.18, 1.52, 6.84, repro,
2007-05-23,0.29, -2.52, -14.51, 2.23, 1.54, 7.00, repro,
2007-05-24,0.03, -3.01, -13.53, 2.27, 1.60, 7.15, repro,
2007-05-25,1.86, -2.51, -22.45, 2.25, 1.58, 7.07, repro,
2007-05-26,1.13, -3.25, -15.58, 2.20, 1.53, 6.91, repro,
2007-05-27,-0.21, -2.85, -9.77, 2.18, 1.52, 6.84, repro,
2007-05-28,0.06, -3.22, -14.89, 2.19, 1.53, 6.88, repro,
2007-05-29,0.92, -2.88, -15.91, 2.20, 1.54, 6.94, repro,
2007-05-30,0.54, -3.59, -16.52, 2.23, 1.54, 6.91, repro,
2007-05-31,-0.19, -2.97, -14.11, 2.25, 1.59, 7.05, repro,
2007-06-01,-0.29, -2.65, -15.32, 2.18, 1.53, 6.85, repro,
2007-06-02,0.40, -4.02, -10.53, 2.19, 1.53, 6.85, repro,
2007-06-03,-0.29, -3.68, -13.67, 2.19, 1.53, 6.89, repro,
2007-06-04,1.59, -2.16, -19.82, 2.23, 1.58, 7.14, repro,
2007-06-05,-0.07, -2.74, -9.72, 2.22, 1.54, 6.96, repro,
2007-06-06,-0.61, -2.73, -7.32, 2.18, 1.53, 6.86, repro,
2007-06-07,0.20, -3.63, -8.29, 2.17, 1.53, 6.82, repro,
2007-06-08,-0.50, -2.84, -13.74, 2.18, 1.53, 6.84, repro,
2007-06-09,-1.09, -2.99, -15.39, 2.18, 1.54, 6.90, repro,
2007-06-10,-1.11, -3.37, -12.82, 2.18, 1.54, 6.89, repro,
2007-06-11,0.89, -2.48, -12.43, 2.23, 1.61, 7.14, repro,
2007-06-12,0.88, -2.47, -20.35, 2.21, 1.57, 6.99, repro,
2007-06-13,-0.10, -2.81, -14.94, 2.22, 1.58, 6.99, repro,
2007-06-14,0.75, -3.44, -20.34, 2.23, 1.58, 7.01, repro,
2007-06-15,0.78, -3.90, -12.93, 2.17, 1.54, 6.89, repro,
2007-06-16,0.53, -2.75, -15.35, 2.18, 1.53, 6.82, repro,
2007-06-17,1.61, -2.42, -14.29, 2.19, 1.53, 6.87, repro,
2007-06-18,0.54, -2.21, -10.78, 2.18, 1.53, 6.84, repro,
2007-06-19,1.29, -3.05, -14.44, 2.18, 1.53, 6.85, repro,
2007-06-20,0.76, -2.67, -16.33, 2.18, 1.53, 6.86, repro,
2007-06-21,0.54, -3.11, -12.56, 2.18, 1.53, 6.83, repro,
2007-06-22,1.36, -3.26, -16.69, 2.19, 1.54, 6.91, repro,
2007-06-23,0.50, -1.89, -16.55, 2.17, 1.52, 6.81, repro,
2007-06-24,-0.01, -3.70, -13.58, 2.22, 1.58, 7.05, repro,
2007-06-25,0.72, -1.78, -18.80, 2.17, 1.53, 6.83, repro,
2007-06-26,0.56, -3.51, -21.07, 2.19, 1.54, 6.92, repro,
2007-06-27,1.40, -2.86, -21.03, 2.23, 1.58, 7.03, repro,
2007-06-28,1.94, -2.66, -14.61, 2.18, 1.53, 6.89, repro,
2007-06-29,-0.01, -3.32, -8.55, 2.18, 1.53, 6.89, repro,
2007-06-30,0.40, -1.91, -15.25, 2.18, 1.52, 6.84, repro,
2007-07-01,0.95, -2.60, -10.59, 2.19, 1.54, 6.91, repro,
2007-07-02,2.45, -2.20, -13.05, 2.18, 1.54, 6.89, repro,
2007-07-03,0.93, -3.49, -19.59, 2.16, 1.53, 6.82, repro,
2007-07-04,0.65, -1.84, -21.26, 2.19, 1.53, 6.86, repro,
2007-07-05,-0.08, -2.90, -15.35, 2.17, 1.53, 6.84, repro,
2007-07-06,0.74, -2.51, -18.70, 2.19, 1.53, 6.82, repro,
2007-07-07,0.89, -3.68, -14.66, 2.18, 1.54, 6.90, repro,
2007-07-08,-0.28, -2.85, -10.50, 2.17, 1.53, 6.83, repro,
2007-07-09,0.47, -2.57, -11.47, 2.17, 1.52, 6.81, repro,
2007-07-10,1.56, -3.98, -14.40, 2.18, 1.54, 6.88, repro,
2007-07-11,0.18, -3.17, -12.51, 2.18, 1.53, 6.86, repro,
2007-07-12,-0.47, -3.13, -7.17, 2.20, 1.54, 6.93, repro,
2007-07-13,0.81, -1.79, -10.53, 2.35, 1.65, 7.30, repro,
2007-07-14,0.85, -2.76, -14.68, 2.20, 1.58, 7.05, repro,
2007-07-15,0.47, -3.03, -8.62, 2.23, 1.55, 7.00, repro,
2007-07-16,-0.70, -2.19, -12.05, 2.18, 1.54, 6.90, repro,
2007-07-17,-0.22, -4.25, -10.60, 2.19, 1.54, 6.90, repro,
2007-07-18,-0.05, -3.46, -12.95, 2.19, 1.53, 6.89, repro,
2007-07-19,-0.94, -3.24, -7.99, 2.17, 1.55, 6.88, repro,
2007-07-20,-0.54, -3.12, -9.31, 2.16, 1.53, 6.81, repro,
2007-07-21,-0.92, -2.86, -9.80, 2.18, 1.53, 6.82, repro,
2007-07-22,-0.77, -2.45, -10.22, 2.19, 1.54, 6.91, repro,
2007-07-23,0.63, -3.83, -13.88, 2.24, 1.61, 7.16, repro,
2007-07-24,1.33, -2.05, -8.24, 2.23, 1.59, 7.07, repro,
2007-07-25,0.77, -3.14, -8.47, 2.15, 1.53, 6.80, repro,
2007-07-26,0.50, -3.61, -8.31, 2.16, 1.53, 6.80, repro,
2007-07-27,-0.11, -2.10, -2.50, 2.22, 1.58, 7.03, repro,
2007-07-28,0.85, -3.62, -4.73, 2.19, 1.53, 6.89, repro,
2007-07-29,-0.76, -2.21, -5.27, 2.19, 1.54, 6.91, repro,
2007-07-30,-0.59, -2.80, -7.59, 2.17, 1.53, 6.85, repro,
2007-07-31,1.05, -2.79, -6.59, 2.17, 1.53, 6.85, repro,
2007-08-01,-0.14, -3.12, -8.35, 2.17, 1.52, 6.79, repro,
2007-08-02,-0.15, -2.79, -6.05, 2.19, 1.52, 6.86, repro,
2007-08-03,0.19, -2.72, -5.96, 2.20, 1.54, 6.93, repro,
2007-08-04,0.44, -3.17, -2.50, 2.19, 1.53, 6.87, repro,
2007-08-05,1.29, -2.35, -6.31, 2.17, 1.53, 6.82, repro,
2007-08-06,-0.23, -3.56, -4.16, 2.21, 1.56, 6.94, repro,
2007-08-07,-0.97, -2.72, -4.38, 2.22, 1.56, 6.97, repro,
2007-08-08,0.30, -2.21, -2.27, 2.19, 1.53, 6.84, repro,
2007-08-09,-0.24, -2.84, -5.19, 2.18, 1.54, 6.89, repro,
2007-08-10,0.30, -2.69, -7.79, 2.16, 1.52, 6.82, repro,
2007-08-11,-0.43, -3.04, -4.26, 2.18, 1.53, 6.87, repro,
2007-08-12,-0.16, -3.50, -1.80, 2.15, 1.52, 6.79, repro,
2007-08-13,-1.16, -1.96, -9.74, 2.18, 1.52, 6.81, repro,
2007-08-14,0.40, -1.81, -11.17, 2.32, 1.65, 7.33, repro,
2007-08-15,-1.10, -3.25, -5.70, 2.32, 1.65, 7.35, repro,
2007-08-16,-0.70, -4.10, 1.53, 2.29, 1.61, 7.18, repro,
2007-08-17,0.45, -4.22, -3.09, 2.38, 1.71, 7.50, repro,
2007-08-18,-1.11, -2.46, -5.81, 2.33, 1.62, 7.31, repro,
2007-08-19,0.09, -3.12, -2.37, 2.32, 1.62, 7.27, repro,
2007-08-20,0.19, -3.15, -5.07, 2.27, 1.58, 7.05, repro,
2007-08-21,1.05, -4.35, -2.03, 2.27, 1.57, 7.03, repro,
2007-08-22,-0.50, -3.57, -8.92, 2.28, 1.58, 7.08, repro,
2007-08-23,0.77, -3.33, -1.64, 2.25, 1.54, 6.95, repro,
2007-08-24,-0.13, -2.63, -2.01, 2.35, 1.62, 7.28, repro,
2007-08-25,0.26, -3.29, -5.00, 2.27, 1.60, 7.15, repro,
2007-08-26,-0.41, -3.49, -1.83, 2.33, 1.64, 7.30, repro,
2007-08-27,0.73, -3.24, -8.75, 2.34, 1.65, 7.37, repro,
2007-08-28,-0.34, -3.74, -7.58, 2.29, 1.61, 7.22, repro,
2007-08-29,0.22, -3.27, -6.93, 2.29, 1.62, 7.23, repro,
2007-08-30,-1.07, -3.21, -5.11, 2.28, 1.60, 7.17, repro,
2007-08-31,0.01, -3.57, -6.96, 2.33, 1.65, 7.29, repro,
2007-09-01,0.37, -4.27, -8.56, 2.28, 1.60, 7.14, repro,
2007-09-02,-0.21, -3.73, -4.67, 2.29, 1.61, 7.20, repro,
2007-09-03,-0.47, -4.45, -2.65, 2.30, 1.62, 7.29, repro,
2007-09-04,0.37, -4.32, -5.45, 2.35, 1.65, 7.35, repro,
2007-09-05,-1.24, -3.56, -2.70, 2.30, 1.64, 7.33, repro,
2007-09-06,-1.97, -4.27, 2.08, 2.27, 1.60, 7.10, repro,
2007-09-07,-0.25, -4.08, -5.41, 2.36, 1.64, 7.34, repro,
2007-09-08,0.13, -3.78, -3.86, 2.39, 1.69, 7.60, repro,
2007-09-09,-0.42, -3.05, -7.89, 2.39, 1.69, 7.57, repro,
2007-09-10,-0.74, -3.41, -5.38, 2.30, 1.60, 7.16, repro,
2007-09-11,-0.48, -4.26, -3.14, 2.29, 1.60, 7.14, repro,
2007-09-12,0.25, -4.78, -2.28, 2.28, 1.60, 7.15, repro,
2007-09-13,0.28, -3.35, -1.78, 2.33, 1.65, 7.42, repro,
2007-09-14,0.32, -3.82, -3.60, 2.35, 1.65, 7.49, repro,
2007-09-15,-0.80, -3.99, -1.66, 2.36, 1.64, 7.43, repro,
2007-09-16,0.64, -3.44, -6.44, 2.29, 1.61, 7.22, repro,
2007-09-17,-0.78, -3.26, -1.01, 2.33, 1.65, 7.44, repro,
2007-09-18,-0.73, -3.46, -7.15, 2.21, 1.59, 7.04, repro,
2007-09-19,-0.57, -3.40, -2.05, 2.21, 1.55, 6.97, repro,
2007-09-20,-0.17, -3.39, 0.00, 2.21, 1.55, 6.98, repro,
2007-09-21,0.15, -2.89, -10.27, 2.29, 1.58, 7.22, repro,
2007-09-22,-0.91, -2.84, 4.36, 2.25, 1.55, 7.01, repro,
2007-09-23,-1.01, -2.92, -3.70, 2.29, 1.59, 7.12, repro,
2007-09-24,-0.54, -2.62, -5.13, 2.34, 1.61, 7.31, repro,
2007-09-25,-0.71, -2.30, -11.93, 2.28, 1.57, 7.14, repro,
2007-09-26,-0.18, -2.88, -1.65, 2.34, 1.55, 7.11, repro,
2007-09-27,-0.39, -2.75, -7.31, 2.27, 1.57, 7.16, repro,
2007-09-28,-0.51, -2.95, -3.13, 2.23, 1.57, 7.05, repro,
2007-09-29,-1.73, -2.89, -5.30, 2.30, 1.63, 7.18, repro,
2007-09-30,-0.65, -2.39, -5.91, 2.24, 1.59, 7.10, repro,
2007-10-01,-0.19, -2.43, -4.93, 2.30, 1.62, 7.20, repro,
2007-10-02,-0.51, -1.23, -5.45, 2.37, 1.67, 7.51, repro,
2007-10-03,-1.31, -2.30, -0.58, 2.27, 1.60, 7.23, repro,
2007-10-04,0.73, -2.32, -4.99, 2.22, 1.57, 7.10, repro,
2007-10-05,-0.19, -2.46, -4.08, 2.37, 1.69, 7.55, repro,
2007-10-06,-0.32, -2.48, -8.43, 2.36, 1.66, 7.39, repro,
2007-10-07,0.49, -1.74, -12.01, 2.38, 1.65, 7.39, repro,
2007-10-08,-1.24, -1.85, -6.76, 2.56, 1.73, 7.90, repro,
2007-10-09,-1.27, -1.92, -7.55, 2.38, 1.73, 7.63, repro,
2007-10-10,0.69, -2.51, -10.36, 2.47, 1.70, 7.70, repro,
2007-10-11,0.19, -2.25, -11.35, 2.32, 1.62, 7.21, repro,